Погода в Чефалу

Италия     38°01′58″N   14°00′54″E
темп.,
°C
ветер,
м/с
пор.,
м/с
влажн.,
%
обл.,
%
осадки,
мм/ч
давл.,
гПа
погр.,
м
20 апреля, вт
вт2023:00+7ю33761 0.0 101989
02:00+7ююз44790 0.0 101984
05:00+7ююз44780 0.0 101880
08:00+10ююз34710 0.0 1019162
11:00+13сз35501 0.0 10191121
14:00+14ссз33608 0.1 1019947
17:00+13с326430 0.4 1018695
20:00+9вюв1283100 0.4 1019105
21 апреля, ср
ср2123:00+9ююв228099 0.0 102042
02:00+9ю227686 0.0 102049
05:00+9ю327189 0.0 101947
08:00+12юв126395 0.0 1019126
11:00+16св1354100 0.0 1019722
14:00+17св3357100 0.1 1019915
17:00+15всв4572100 0.7 1018381
20:00+13ююв2377100 0.7 101852
22 апреля, чт
чт2223:00+13ююз4576100 0.0 101893
02:00+13ю4674100 0.2 101899
05:00+12ююв2279100 0.8 101820
08:00+12юв4586100 1.4 1018103
11:00+18ю4651100 0.0 1016673
14:00+18ююв2557100 0.0 1015909
17:00+14ссз1176100 0.4 101636
20:00+13ююв1186100 1.1 101620
23 апреля, пт
пт2323:00+13ю3378100 0.0 101638
02:00+12ююв4474100 0.0 101547
05:00+13ююв2269100 0.0 101421
08:00+13ююв2283100 1.3 101458
11:00+17всв3364100 0.0 1013419
14:00+16с2173100 0.0 1012406
17:00+14зсз237948 0.0 1011354
20:00+12зюз339154 0.0 1012150
24 апреля, сб
сб2423:00+12сз1194100 0.3 1013104
02:00+12ссз2299100 3.3 1012165
05:00+11сз2398100 5.4 1012218
08:00+11ссв3496100 6.6 1014283
11:00+13ссв448845 0.7 1015602
14:00+14ссв447731 1.2 1016783
17:00+14ссв34696 0.2 1016769
20:00+11ссз11873 0.2 1018138